Regional Weather Roundup
Issued by NWS Charleston, SC

Current Version | Previous Version | Text Only | Print | Product List | Glossary Off
Versions: 1 2 3 4 5 6 7 8 9 10 11 12 13 14 15 16 17 18 19 20 21 22 23 24 25 26 27 28 29 30 31 32 33 34 35 36 37 38 39 40 41 42 43 44 45 46 47 48 49 50

621
ASUS42 KCHS 261112
RWRCHS

REGIONAL WEATHER ROUNDUP
NATIONAL WEATHER SERVICE CHARLESTON SC
700 AM EDT WED APR 26 2017

NOTE: "FAIR" INDICATES FEW OR NO CLOUDS BELOW 12,000 FEET WITH NO
SIGNIFICANT WEATHER AND/OR OBSTRUCTIONS TO VISIBILITY.

NOT ALL STATIONS ARE QUALITY CONTROLLED. USE DATA WITH CAUTION...
ESPECIALLY DEWPOINT OBSERVATIONS.

SCZ027-030-031-034>040-042>050-261200-
...SOUTHEAST SOUTH CAROLINA...

CITY           SKY/WX    TMP DP  RH WIND       PRES   REMARKS
N CHARLESTON   PTCLDY    62  61  96 S5        29.78R
WATERFRONT PRK   N/A     69  68  96 S5        29.77R
JOHNS ISLAND   FAIR      63  63 100 CALM      29.79R FOG
PINOPOLIS        N/A     64  63  94 VRB2      29.69R
MONCKS CORNER  FAIR      59  59 100 CALM      29.79R
SUMMERVILLE    FAIR      59  57  94 CALM      29.79S
BEAUFORT MCAS  CLEAR     61  60  97 SW3       29.80R
BEAUFORT ARPT  FAIR      63  61  94 SW5       29.80R
HILTON HEAD IS CLEAR     64  61  88 SW6       29.80R
WALTERBORO     FOG       59  59 100 CALM      29.80R VSB<1/4
ALLENDALE      FAIR      61  59  94 CALM      29.78R

...SOUTHERN MIDLANDS AND PEE DEE...

CITY           SKY/WX    TMP DP  RH WIND       PRES   REMARKS
GEORGETOWN     FAIR      54  54 100 CALM      29.80R
KINGSTREE      FAIR      55  55 100 CALM      29.80R
ORANGEBURG     CLEAR     59  58  96 CALM      29.79R FOG
BARNWELL       FAIR      57  57 100 CALM      29.79R
AIKEN          FAIR      54  52  94 CALM      29.82R
MANNING        FAIR      57  55  94 CALM      29.79R
COLUMBIA       CLEAR     58  54  86 CALM      29.78R
SUMTER         CLEAR     57  56  95 CALM      29.77R
FLORENCE       FOG       56  56 100 CALM      29.81R VSB 1/4
MYRTLE BEACH   PTCLDY    61  57  88 VRB6      29.80R
N MYRTLE BEACH PTCLDY    59  59 100 CALM      29.80R

$$

GAZ063-065-086>088-099>101-113>116-118-119-134>141-150-261200-
...SOUTHEAST GEORGIA...

CITY           SKY/WX    TMP DP  RH WIND       PRES   REMARKS
SAVANNAH ARPT  PTCLDY    62  56  80 SW3       29.81R
HUNTER AAF     CLEAR     61  60  97 W3        29.78R
FORT STEWART   PTCLDY    58  55  91 CALM      29.79R
STATESBORO     CLEAR     61  61 100 CALM      29.81R
SYLVANIA       SUNNY    N/A N/A N/A CALM      29.81R
CLAXTON        FAIR     N/A N/A N/A CALM      29.81R

...CSRA...CENTRAL AND FAR SOUTHEAST GEORGIA...

CITY           SKY/WX    TMP DP  RH WIND       PRES   REMARKS
THOMSON        CLEAR     54  53  97 CALM      29.83R
AUGUSTA-BUSH   FOG       56  54  93 CALM      29.78R VSB<1/4
AUGUSTA-DANIEL CLEAR     61  57  87 SE6       29.79R
SWAINSBORO     FAIR      55  55 100 CALM      29.81R
VIDALIA        PTCLDY    59  57  94 SW3       29.81R
EASTMAN        FAIR      59  58  96 CALM      29.84R
HAZLEHURST     FAIR      61  61 100 CALM      29.81R
ALMA           FOG       55  55 100 CALM      29.82R VSB 1/4
WAYCROSS       CLEAR     58  58 100 CALM      29.82R
JESUP          FAIR      54  50  87 CALM      29.82R
BAXLEY         FAIR      57  57 100 CALM      29.82R
BRUNSWICK      CLEAR     61  59  94 W5        29.83R
SAINT SIMONS   CLEAR     64  58  80 W6        29.82R

$$

SCZ027-028-034-036>038-045-046-048>050-GAZ119-141-261200-
...LAKE AND SUPPLEMENTAL COASTAL OBSERVATIONS...

STATION/POSITION TIME  TEMP    WIND        PRES    WAVE   SWELL
                       AIR SEA DIR/SP/G            HT/PER HT/PER/DIR
                 (UTC) (F)     (DEG/KT/KT) (MB)    (FT/S) (FT/S/D)
WINYAH BAY       0945   59        CALM     1008.0
LAKE MURRAY      1020   64     180/  5/  6 1007.5
ACE BASIN NERRS  NOT AVBL
FORT PULASKI     1042   65 74  270/  5/  6 1009.3R
SAPELO ISLAND    1000   65     240/  7     1009.0

$$

ANZ835-935-AMZ111-154-330-350-352-354-370-450-454-472-261200-
...C-MAN AND BUOY OBSERVATIONS...

STATION/POSITION TIME  TEMP    WIND        PRES    WAVE   SWELL
                       AIR SEA DIR/SP/G            HT/PER HT/PER/DIR
                 (UTC) (F)     (DEG/KT/KT) (MB)    (FT/S) (FT/S/D)
BUOY 41004       1050   71 73  190/  4/  6 1008.6R   4/ 9   5/120/ 9
BUOY 41008       0950   69 71  240/ 14/ 16 1008.8    4/ 5   2/ 70/ 9
FOLLY BEACH CMAN 1000   70     150/  9/ 10 1008.8R
CAPERS NEARSHORE 1008   72 71  180/ 10/ 14 1008.0R
FRIPP NEARSHORE  1008   71 70  260/ 10/ 14 1008.1R


STATION/POSITION TIME  TEMP    WIND        PRES    WAVE   SWELL
                       AIR SEA DIR/SP/G            HT/PER HT/PER/DIR
                 (UTC) (F)     (DEG/KT/KT) (MB)    (FT/S) (FT/S/D)
5E ST. MARYS GA  1030      72                N/A     3/10   2/100/11
FRYING PAN BUOY  1050   69 74  280/ 10/ 14 1008.8R   4/10   3/130/10
BUOY 41025       1050   69 77  280/ 14/ 17 1007.1R   8/10   7/150/10
CAPE LOOKOUT NC  1000   63     270/ 10/ 12 1007.0R
BUOY 41002       1050   73 75  230/ 16/ 19 1009.9R   8/ 8   5/110/10
BUOY 41010       1050   76 78  190/ 12/ 16 1011.1R   4/10   3/100/10
ST AUGUSTINE FL  1100   61 72  210/  6/  7 1011.9R


$$




USA.gov is the U.S. government's official web portal to all federal, state and local government web resources and services.